Weather History for KFTK - November, 2012

Change the Weather History Date:

Thursday, November 15, 2012

  Actual Average Record
Temperature  
Mean Temperature 38 °F -  
Max Temperature 49 °F 53 °F 71 °F (2005)
Min Temperature 26 °F 35 °F 18 °F (2014)
Degree Days  
Heating Degree Days 28    
Moisture  
Dew Point 27 °F    
Average Humidity 69    
Maximum Humidity 90    
Minimum Humidity 44    
Precipitation  
Precipitation 0.00 in - - ()
Sea Level Pressure  
Sea Level Pressure 30.34 in    
Wind  
Wind Speed 4 mph (North)    
Max Wind Speed 7 mph    
Max Gust Speed -    
Visibility 10 miles    
Events      
Averages and records for this station are not official NWS values.
T = Trace of Precipitation, MM = Missing Value Source: NWS Daily Summary

Daily Weather History Graph

Daily Weather History Graph

Search for Another Location

Airport or City:

Trip Planner

Search our weather history database for the weather conditions in past years. The results will help you decide how hot, cold, wet, or windy it might be!

Date:

Astronomy

Nov. 15, 2012 Rise Set
Actual Time 7:24 AM EST 5:31 PM EST
Civil Twilight 6:56 AM EST 5:59 PM EST
Nautical Twilight 6:25 AM EST 6:31 PM EST
Astronomical Twilight 5:53 AM EST 7:02 PM EST
Moon 9:18 AM EST (11/15) 7:23 PM EST (11/15)
Length of Visible Light 11h 03m
Length of Day
10h 06m
Waxing Crescent, 5% of the Moon is Illuminated
Nov 15
Waxing Crescent
Nov 20
First Quarter
Nov 28
Full
Dec 6
Last Quarter
Dec 13
New

Hourly Weather History & Observations

Time (EST) Temp. Windchill Dew Point Humidity Pressure Visibility Wind Dir Wind Speed Gust Speed Precip Events Conditions
12:55 AM 30.6 °F 25.8 °F 24.6 °F 79% 30.34 in 10.0 mi NNE 4.6 mph - N/A   Clear
1:55 AM 31.5 °F 25.8 °F 25.2 °F 78% 30.32 in 10.0 mi NNE 5.8 mph - N/A   Clear
2:55 AM 30.0 °F 25.2 °F 25.3 °F 83% 30.33 in 10.0 mi North 4.6 mph - N/A   Clear
3:55 AM 27.7 °F - 24.3 °F 87% 30.32 in 10.0 mi Calm Calm - N/A   Clear
4:55 AM 26.2 °F 22.1 °F 22.8 °F 87% 30.33 in 10.0 mi North 3.5 mph - N/A   Clear
5:55 AM 27.1 °F 21.8 °F 24.4 °F 90% 30.35 in 10.0 mi NNE 4.6 mph - N/A   Clear
6:55 AM 26.8 °F 22.8 °F 23.5 °F 88% 30.36 in 10.0 mi NNE 3.5 mph - N/A   Clear
7:55 AM 28.0 °F - 25.2 °F 89% 30.37 in 10.0 mi Calm Calm - N/A   Clear
8:55 AM 33.3 °F 30.2 °F 28.2 °F 82% 30.38 in 10.0 mi NE 3.5 mph - N/A   Clear
9:55 AM 37.2 °F 34.7 °F 28.2 °F 70% 30.38 in 10.0 mi East 3.5 mph - N/A   Clear
10:55 AM 41.0 °F 38.0 °F 28.4 °F 61% 30.38 in 10.0 mi NE 4.6 mph - N/A   Clear
11:55 AM 45.7 °F 42.0 °F 29.7 °F 54% 30.36 in 10.0 mi North 6.9 mph - N/A   Clear
12:55 PM 46.8 °F - 28.4 °F 49% 30.35 in 10.0 mi NNW 5.8 mph - N/A   Mostly Cloudy
1:55 PM 48.4 °F - 28.6 °F 46% 30.32 in 10.0 mi NNE 5.8 mph - N/A   Mostly Cloudy
2:55 PM 49.6 °F - 29.3 °F 46% 30.32 in 10.0 mi NW 5.8 mph - N/A   Clear
3:55 PM 49.3 °F - 27.9 °F 44% 30.32 in 10.0 mi NNE 4.6 mph - N/A   Overcast
4:55 PM 47.7 °F - 27.1 °F 45% 30.32 in 10.0 mi North 4.6 mph - N/A   Overcast
5:55 PM 44.4 °F 42.9 °F 27.5 °F 52% 30.32 in 10.0 mi North 3.5 mph - N/A   Overcast
6:55 PM 39.9 °F 37.8 °F 29.7 °F 67% 30.33 in 10.0 mi North 3.5 mph - N/A   Overcast
7:55 PM 36.5 °F 33.9 °F 28.9 °F 74% 30.34 in 10.0 mi NW 3.5 mph - N/A   Overcast
8:55 PM 36.7 °F 32.9 °F 27.7 °F 70% 30.35 in 10.0 mi North 4.6 mph - N/A   Mostly Cloudy
9:55 PM 37.4 °F 32.8 °F 28.0 °F 69% 30.35 in 10.0 mi North 5.8 mph - N/A   Mostly Cloudy
10:55 PM 36.0 °F 32.1 °F 27.7 °F 72% 30.36 in 10.0 mi North 4.6 mph - N/A   Mostly Cloudy
11:55 PM 36.9 °F 31.4 °F 29.1 °F 74% 30.36 in 10.0 mi Variable 6.9 mph - N/A   Mostly Cloudy